Location: MAS Eagle Lake Observatory
(44.8103°N, 93.9397°W)
Time: 20:36:29
(UTC-06:00)

OTV 5 (USA 277) - Visible Passes

Search period start: 13 December 2017 00:00
Search period end: 23 December 2017 00:00
Orbit: 404 x 417 km, 43.0° (Epoch: 07 September)

Date Brightness Start Highest point End Pass type
(mag) Time Alt. Az. Time Alt. Az. Time Alt. Az.
13 Dec ? 17:10:33 10° W 17:13:52 52° S 17:17:09 10° ESE visible
13 Dec ? 18:48:17 10° WSW 18:50:46 19° SSW 18:51:35 18° S visible
14 Dec ? 17:56:58 10° W 17:59:50 26° SSW 18:02:42 10° SE visible
15 Dec ? 17:05:47 10° W 17:08:53 33° SSW 17:11:58 10° SE visible
16 Dec ? 17:52:53 10° WSW 17:54:41 14° SSW 17:56:28 10° S visible
